Total_Precipitation_Accumulation
0.09 0.17 0.24 0.26 0.22 0.20 0.17 0.17 0.25 0.36 0.55 0.70 0.80 0.83 0.86 0.89 0.87 0.80 0.84 0.88 0.93 1.04 1.04 0.94 0.88 0.87 0.91 1.00 1.05 1.08 1.29 1.49 1.69 1.88 1.94 1.99 2.05 2.07 2.13 2.16 2.06 2.17 2.23 2.22
0.13 0.18 0.20 0.21 0.23 0.19 0.15 0.14 0.21 0.35 0.57 0.75 0.75 0.86 0.90 0.84 0.82 0.83 0.88 0.93 1.05 1.10 1.09 1.12 1.08 1.08 1.15 1.22 1.33 1.49 1.70 1.85 1.93 2.01 2.05 2.00 2.02 2.04 2.19 2.24 2.29 2.41 2.43 2.46
0.24 0.25 0.27 0.32 0.27 0.23 0.20 0.21 0.28 0.39 0.59 0.73 0.82 0.96 1.06 1.07 0.97 0.96 1.07 1.11 1.21 1.26 1.25 1.30 1.30 1.38 1.52 1.51 1.59 1.77 1.95 2.14 2.15 2.14 2.14 2.09 2.13 2.15 2.14 2.27 2.40 2.45 2.45 2.48
0.33 0.38 0.54 0.44 0.31 0.28 0.27 0.29 0.33 0.45 0.63 0.76 0.88 0.95 1.15 1.31 1.24 1.08 1.04 1.11 1.23 1.32 1.33 1.28 1.34 1.46 1.70 1.81 1.81 1.96 2.10 2.22 2.30 2.36 2.42 2.48 2.55 2.53 2.57 2.63 2.68 2.63 2.58 2.61
0.48 0.58 0.62 0.52 0.41 0.36 0.40 0.52 0.51 0.64 0.88 1.00 1.03 1.24 1.49 1.48 1.35 1.25 1.24 1.21 1.36 1.37 1.33 1.35 1.56 1.66 1.73 1.83 1.86 2.03 2.24 2.40 2.49 2.56 2.62 2.66 2.68 2.80 2.96 3.11 3.18 3.10 3.06 3.10
0.56 0.69 0.79 0.74 0.54 0.49 0.64 1.19 0.97 0.95 1.03 1.03 1.16 1.69 1.77 1.38 1.22 1.22 1.23 1.33 1.48 1.53 1.49 1.58 1.87 1.95 2.04 2.11 2.17 2.25 2.36 2.53 2.74 2.89 2.97 2.94 3.01 3.22 3.41 3.58 3.62 3.64 3.66 3.65
0.66 0.77 0.86 0.74 0.60 0.68 1.31 1.76 1.39 1.26 1.23 1.25 1.48 1.59 1.60 1.44 1.27 1.20 1.22 1.31 1.46 1.54 1.56 1.63 1.86 2.06 2.35 2.48 2.54 2.56 2.60 2.72 2.89 3.06 3.20 3.25 3.38 3.49 3.69 3.85 3.84 3.79 3.74 3.70
1.01 1.20 1.25 0.79 0.78 1.19 1.56 1.35 1.46 1.61 1.64 1.59 1.60 1.43 1.39 1.43 1.44 1.40 1.37 1.39 1.46 1.60 1.69 1.77 1.89 2.14 2.42 2.63 2.78 2.85 2.84 3.00 3.10 3.17 3.03 3.00 3.31 3.54 3.79 4.02 3.98 3.90 3.92 3.76
1.36 1.52 1.34 1.04 1.13 1.21 1.19 1.32 1.43 1.54 1.69 1.75 1.73 1.72 1.62 1.67 1.65 1.57 1.49 1.44 1.45 1.52 1.65 1.73 1.81 2.03 2.44 2.60 2.71 2.82 2.91 2.97 3.11 3.15 3.14 3.22 3.45 3.65 3.88 4.01 3.96 3.85 3.81 3.69
1.57 1.62 1.49 1.39 1.41 1.44 1.44 1.46 1.47 1.51 1.63 1.71 1.75 1.84 1.77 1.72 1.56 1.44 1.37 1.41 1.49 1.57 1.70 1.78 1.71 1.86 2.06 2.27 2.43 2.53 2.59 2.61 2.62 2.74 2.91 3.17 3.50 3.59 3.67 3.71 3.75 3.73 3.62 3.46
1.98 2.08 2.01 1.85 1.83 1.80 1.69 1.73 1.77 1.72 1.70 1.73 1.66 1.70 1.70 1.56 1.40 1.35 1.40 1.35 1.43 1.61 1.63 1.68 1.75 1.76 1.81 1.87 2.06 2.24 2.29 2.30 2.39 2.51 2.72 2.95 3.18 3.32 3.28 3.31 3.52 3.42 3.18 3.00
2.10 2.14 2.31 2.27 2.05 1.97 1.82 1.86 1.88 1.82 1.72 1.68 1.66 1.68 1.63 1.53 1.45 1.41 1.41 1.43 1.44 1.53 1.55 1.57 1.70 1.78 1.76 1.87 2.04 2.10 2.04 2.04 2.08 2.15 2.35 2.53 2.68 2.79 2.83 2.61 2.67 2.59 2.42 2.28
1.76 1.89 2.04 2.18 2.11 2.08 2.08 1.97 1.93 1.94 1.82 1.75 1.67 1.59 1.50 1.49 1.49 1.43 1.46 1.53 1.56 1.59 1.61 1.67 1.69 1.72 1.78 1.96 2.13 2.21 2.13 2.08 2.07 2.10 2.23 2.28 2.30 2.35 2.40 2.31 2.19 2.10 1.92 1.77
1.87 2.08 2.40 2.51 2.37 2.17 2.14 2.04 1.94 2.05 2.09 2.07 1.84 1.61 1.46 1.43 1.43 1.51 1.58 1.68 1.73 1.73 1.70 1.72 1.73 1.69 1.69 1.83 2.04 2.35 2.45 2.38 2.24 2.18 2.19 2.13 2.12 2.19 2.32 2.35 2.22 1.97 1.77 1.57
2.05 2.19 2.40 2.43 2.28 2.13 2.07 2.04 2.00 2.07 2.17 2.10 1.95 1.75 1.61 1.58 1.64 1.67 1.67 1.70 1.72 1.72 1.74 1.72 1.72 1.74 1.77 1.85 1.94 2.13 2.37 2.35 2.22 2.18 2.21 2.31 2.28 2.26 2.33 2.33 2.39 2.27 1.98 1.74
2.10 2.14 2.29 2.30 2.25 2.11 1.98 2.01 2.08 2.01 1.93 1.90 1.90 1.78 1.73 1.62 1.57 1.56 1.66 1.80 2.00 1.98 1.85 1.86 1.86 1.83 1.79 1.78 1.81 1.94 2.08 2.15 2.07 2.03 2.03 2.20 2.27 2.27 2.29 2.39 2.38 2.25 2.04 1.76
2.02 2.16 2.32 2.32 2.21 2.01 1.94 2.04 2.07 1.98 1.84 1.70 1.79 1.74 1.69 1.70 1.75 1.78 1.83 1.85 2.05 2.07 1.89 1.88 1.90 1.84 1.77 1.77 1.81 1.79 1.81 1.81 1.82 1.84 1.91 2.06 2.19 2.23 2.18 2.15 2.18 2.08 1.91 1.64
1.70 1.82 1.95 1.99 2.00 1.89 1.80 1.82 1.92 1.90 1.79 1.72 1.76 1.78 1.74 1.83 1.92 2.02 2.08 2.06 2.07 1.94 1.78 1.78 1.66 1.61 1.57 1.59 1.70 1.74 1.79 1.77 1.66 1.69 1.90 2.00 2.05 2.08 2.01 1.95 1.96 1.94 1.80 1.54
1.53 1.60 1.58 1.65 1.66 1.67 1.67 1.66 1.70 1.72 1.67 1.69 1.78 1.87 1.85 1.89 1.98 2.10 2.16 2.21 2.21 1.99 1.66 1.47 1.42 1.29 1.27 1.26 1.30 1.43 1.58 1.70 1.71 1.73 1.83 1.84 1.83 1.95 1.98 1.98 1.97 1.92 1.74 1.58
1.41 1.49 1.51 1.48 1.40 1.46 1.49 1.52 1.57 1.61 1.58 1.64 1.77 1.79 1.81 1.87 1.93 2.06 2.15 2.17 2.13 1.96 1.68 1.45 1.21 1.06 0.99 0.97 1.06 1.12 1.28 1.45 1.52 1.54 1.60 1.67 1.73 1.83 1.90 1.87 1.87 1.89 1.79 1.66
1.36 1.40 1.37 1.36 1.37 1.40 1.39 1.35 1.38 1.51 1.52 1.54 1.68 1.80 1.89 1.87 1.79 1.92 2.08 2.09 1.98 1.86 1.73 1.61 1.33 1.16 1.00 0.98 1.01 1.06 1.21 1.38 1.39 1.37 1.37 1.48 1.60 1.67 1.69 1.64 1.60 1.58 1.52 1.46
1.41 1.35 1.27 1.27 1.30 1.36 1.41 1.40 1.33 1.32 1.36 1.49 1.57 1.65 1.75 1.73 1.74 1.79 1.76 1.92 1.91 1.93 1.73 1.56 1.39 1.27 1.18 1.07 0.96 1.03 1.18 1.26 1.28 1.25 1.25 1.37 1.57 1.63 1.62 1.62 1.62 1.57 1.50 1.46
1.53 1.44 1.36 1.34 1.30 1.33 1.37 1.38 1.32 1.33 1.48 1.64 1.66 1.69 1.74 1.68 1.69 1.83 1.77 1.57 1.55 1.69 1.53 1.40 1.43 1.34 1.18 1.04 0.99 1.09 1.24 1.32 1.30 1.20 1.19 1.31 1.41 1.47 1.53 1.51 1.55 1.58 1.58 1.50
1.60 1.45 1.43 1.48 1.43 1.42 1.54 1.44 1.37 1.43 1.52 1.64 1.60 1.60 1.67 1.67 1.62 1.51 1.47 1.41 1.37 1.47 1.30 1.24 1.23 1.23 1.22 1.15 1.15 1.18 1.23 1.25 1.27 1.21 1.20 1.23 1.24 1.27 1.33 1.42 1.53 1.60 1.56 1.48
1.61 1.52 1.48 1.61 1.66 1.58 1.65 1.53 1.43 1.46 1.48 1.57 1.51 1.49 1.55 1.53 1.60 1.53 1.39 1.28 1.33 1.36 1.25 1.23 1.17 1.15 1.13 1.24 1.33 1.32 1.32 1.31 1.33 1.29 1.26 1.25 1.23 1.24 1.32 1.46 1.60 1.63 1.57 1.54
1.73 1.75 1.72 1.74 1.69 1.60 1.58 1.48 1.39 1.40 1.54 1.76 1.65 1.48 1.57 1.57 1.48 1.49 1.51 1.40 1.35 1.39 1.34 1.29 1.23 1.21 1.19 1.31 1.43 1.44 1.39 1.38 1.37 1.34 1.34 1.40 1.43 1.45 1.49 1.59 1.61 1.54 1.44 1.37
1.68 1.67 1.67 1.60 1.55 1.57 1.60 1.53 1.47 1.51 1.65 1.89 1.82 1.55 1.53 1.53 1.50 1.54 1.53 1.54 1.48 1.44 1.43 1.37 1.30 1.27 1.28 1.32 1.34 1.32 1.33 1.36 1.35 1.32 1.32 1.35 1.41 1.46 1.45 1.48 1.47 1.38 1.31 1.22